Torna al catalogo

TITAN 3C TRANSTAGE DEB

LostHEO
NORAD 28821·DEBRIS·🇺🇸 United States

Lanciato Dec 21, 1965 da Cape Canaveral Space Force Station

Loading…

Prossimi Passaggi (prossime 24 ore)

TLE

ObsoletoSource: Space-Track

Epoca: Mar 17, 2026, 10:29 UTC

1 28821U 65108CJ  26076.43682659  .00000011  00000-0  00000-0 0  9997
2 28821  28.3559  63.9743 6541083 205.3076  98.2198  2.63588996  4127

Traccia TITAN 3C TRANSTAGE DEB in tempo reale con AllMySat

Download on the App Store